Weather observations for the past three days for
Astoria, Astoria Regional Airport
Metric (Imperial)
Date Time (pdt) Wind (kph) Vis. (km) Weather Sky Cond. Temperature (ºC) Relative Humidity Wind Chill (°C) Heat Index (°C) Pressure Precipitation (cm)
Air Dwpt 6 hour altimeter (cm) sea level (mb) 1 hr 3 hr 6 hr
Max. Min.
02 11:55 N 11 16.09 Fair CLR 13.9 10 78% 76.2 1015.7
02 10:55 Calm 16.09 Overcast OVC012 12.2 8.9 12.2 10.6 80% 76.25 1016.4
02 09:55 N 7 16.09 Overcast OVC012 11.7 8.9 83% 76.25 1016.4
02 08:55 N 9 16.09 Overcast OVC011 11.1 8.9 86% 76.25 1016.5
02 07:55 NW 9 14.48 Overcast OVC010 11.1 8.9 86% 76.28 1016.8
02 06:55 NW 9 12.87 Overcast OVC009 10.6 8.9 89% 76.25 1016.7
02 05:55 NW 9 16.09 Overcast OVC012 10.6 8.3 86% 76.25 1016.6
02 04:55 NW 9 14.48 Overcast OVC012 10.6 8.9 11.1 10.6 89% 76.25 1016.6
02 03:55 NW 13 16.09 Overcast OVC013 10.6 8.3 86% 76.3 1017.2
02 02:55 W 7 14.48 Overcast OVC012 10.6 8.3 86% 76.33 1017.6
02 01:55 W 7 16.09 Overcast OVC013 10.6 8.3 86% 76.35 1017.9
02 00:55 W 9 16.09 Overcast OVC012 11.1 8.9 86% 76.38 1018.2
01 23:55 Vrbl 6 16.09 Overcast OVC012 11.1 8.3 83% 76.4 1018.4
01 22:55 W 7 16.09 Overcast OVC014 11.1 8.3 12.2 11.1 83% 76.38 1018.3
01 21:55 NW 11 16.09 Overcast OVC015 11.1 8.3 83% 76.4 1018.5
01 20:55 W 9 16.09 Overcast OVC013 11.1 8.3 83% 76.38 1018.2
01 19:55 W 11 16.09 Overcast OVC015 11.7 8.3 80% 76.35 1018.0
01 18:55 W 15 16.09 Overcast OVC015 11.7 8.3 80% 76.35 1017.8
01 17:55 NW 15 16.09 Overcast OVC013 12.2 8.9 80% 76.35 1017.8
01 16:55 NW 13 14.48 Overcast OVC012 12.2 8.9 13.3 11.7 80% 76.35 1017.9
01 15:55 NW 19 14.48 Overcast OVC013 12.8 9.4 80% 76.38 1018.3
01 14:55 NW 15 14.48 Overcast OVC014 12.8 9.4 80% 76.4 1018.6
01 13:55 NW 15 16.09 Overcast OVC015 12.8 9.4 80% 76.4 1018.4
01 12:55 NW 15 16.09 Overcast OVC015 12.8 9.4 80% 76.4 1018.5
01 11:55 NW 19 14.48 Overcast OVC014 12.2 8.9 80% 76.43 1018.8
01 10:55 NW 19 14.48 Overcast OVC012 11.7 8.9 12.2 9.4 83% 76.4 1018.4
01 09:55 W 13 14.48 Overcast OVC012 11.7 8.9 83% 76.38 1018.2
01 08:55 NW 11 14.48 Overcast OVC011 11.7 8.9 83% 76.35 1017.9
01 07:55 NW 11 14.48 Overcast OVC010 11.1 8.9 86% 76.35 1017.8
01 06:55 NW 11 12.87 Overcast OVC011 11.1 9.4 89% 76.3 1017.3
01 05:55 NW 9 14.48 Overcast OVC012 10.6 9.4 92% 76.3 1017.2
01 04:55 SW 7 11.27 Mostly Cloudy BKN011 9.4 8.3 11.7 8.3 93% 9 76.3 1017.2
01 03:55 SW 6 14.48 Mostly Cloudy BKN010 9.4 8.9 97% 76.3 1017.1
01 02:55 W 6 12.87 Fair CLR 10 8.9 93% 76.3 1017.2
01 01:55 W 9 14.48 A Few Clouds FEW008 11.1 10 93% 76.33 1017.5
01 00:55 NW 13 14.48 Overcast OVC009 11.7 10 89% 76.33 1017.6
30 23:55 W 9 11.27 Fair CLR 10 8.9 93% 9 76.3 1017.3
30 22:55 SW 7 11.27 Fair CLR 10.6 8.9 17.8 10 89% 76.3 1017.0
30 21:55 SE 9 14.48 Fair CLR 11.1 9.4 89% 76.28 1016.7
30 20:55 S 6 16.09 Fair CLR 12.2 9.4 83% 76.25 1016.6
30 19:55 W 11 16.09 Fair CLR 13.3 10 81% 76.25 1016.4
30 18:55 NW 22 16.09 Fair CLR 15 10 72% 76.23 1016.3
30 17:55 W 17 16.09 Fair CLR 16.1 11.1 72% 76.23 1016.2
30 16:55 NW 24 G 39 16.09 Fair CLR 17.8 11.1 65% 76.23 1016.3
30 15:55 W 30 G 39 16.09 Fair CLR 19.4 11.7 61% 76.25 1016.6
30 14:55 NW 28 16.09 Fair CLR 18.9 11.7 63% 76.28 1016.9
30 13:55 NW 22 16.09 Fair CLR 20 12.2 61% 76.28 1017.0
30 12:55 N 15 16.09 Fair CLR 18.3 10.6 61% 76.33 1017.6
30 11:55 N 9 16.09 NULL NULL 17.2 9.4 60% 76.38 1018.2
Date Time (pdt) Wind (kph) Vis. (km) Weather Sky Cond. Air Dwpt Max. Min. Relative Humidity Wind Chill (°C) Heat Index (°C) altimeter (cm) sea level (mb) 1 hr 3 hr 6 hr
6 hour
Temperature (ºC) Pressure Precipitation (cm)